Meteo Giornale » Osservazioni meteo Italia » Torino-Caselle

ore: 20:20 - Osservazioni Meteo Torino-Caselle
Lat. 45° 13' N Lon. 7° 39' E Alt. 301 metri s.l.m.

nuvoloso Europe/Rome

21 °C

Nuvoloso

Temp. 24 Ore

18 °C

25 °C

Nord

11.1 Km/h

Dew point 17 °C

Umidità 77 %

Visibilità  10 Km

Il sole sorge alle ore 07:08

Il sole tramonta alle ore 19:40

Data e Ora Cielo e Fenomeni T °C DP °C Um. % Pres. hPa Vis. km Vento km/h
Oggi h: 20:20 nuvoloso Nuvoloso 21 17 77 1013 10 N 11.1
Oggi h: 19:50 nuvoloso Nuvoloso 22 18 78 1013 10 N/NE 9.3
Oggi h: 19:20 nuvoloso Nuvoloso 23 17 68 1013 10 NE 11.1
Oggi h: 18:50 nuvoloso Nuvoloso 24 17 64 1013 10 E/NE 7.4
Oggi h: 18:20 nuvoloso Nuvoloso 25 17 61 1013 10 E/NE 7.4
Oggi h: 17:20 nuvoloso Nuvoloso 25 17 61 1013 10 N 5.5
Oggi h: 16:50 molto_nuvoloso Molto Nuvoloso 25 16 57 1013 10 N 3.7
Oggi h: 16:20 coperto_pioggia Pioggia Debole 25 17 61 1013 10 N 5.5
Oggi h: 15:50 molto_nuvoloso Molto Nuvoloso 25 17 61 1014 10 N 5.5
Oggi h: 15:20 molto_nuvoloso Molto Nuvoloso 25 16 57 1014 10 N 5.5
Oggi h: 14:50 molto_nuvoloso Molto Nuvoloso 25 17 61 1014 10 N 5.5
Oggi h: 14:20 molto_nuvoloso Molto Nuvoloso 24 18 69 1015 10 E 7.4
Oggi h: 13:50 molto_nuvoloso Molto Nuvoloso 23 18 73 1015 10 N 3.7
Oggi h: 13:20 molto_nuvoloso Molto Nuvoloso 23 18 73 1015 10 N 3.7
Oggi h: 12:50 nuvoloso Nuvoloso 23 18 73 1015 10 N 5.5
Oggi h: 12:20 molto_nuvoloso Molto Nuvoloso 22 18 78 1015 10 N 5.5
Oggi h: 11:50 poco_nuvoloso Poco Nuvoloso 22 18 78 1015 10 N 5.5
Oggi h: 11:20 poco_nuvoloso Poco Nuvoloso 22 18 78 1015 10 N 3.7
Oggi h: 10:50 poco_nuvoloso Poco Nuvoloso 21 18 82 1015 10 N 3.7
Oggi h: 10:20 nuvoloso Nuvoloso 20 18 88 1016 10 N 1.8
Oggi h: 09:50 molto_nuvoloso Molto Nuvoloso 20 18 88 1016 10 O/SO 7.4
Oggi h: 09:20 molto_nuvoloso Molto Nuvoloso 20 18 88 1016 10 S 7.4
Oggi h: 08:50 molto_nuvoloso Molto Nuvoloso 20 18 88 1016 10 N 1.8
Oggi h: 08:20 molto_nuvoloso Molto Nuvoloso 19 18 93 1016 8 N 5.5
Oggi h: 07:50 coperto Coperto 19 18 93 1015 8 N 5.5
Oggi h: 07:20 coperto Coperto 18 18 100 1015 6 N 9.3
Oggi h: 06:50 coperto Coperto 18 18 100 1015 6 N 3.7
Oggi h: 05:50 sereno Sereno 18 17 93 1015 10 N 5.5
Oggi h: 05:20 molto_nuvoloso Molto Nuvoloso 19 18 93 1015 10 N 5.5
Oggi h: 04:50 molto_nuvoloso Molto Nuvoloso 19 18 93 1016 10 N 5.5
Oggi h: 04:20 nuvoloso Nuvoloso 19 18 93 1015 10 O/NO 7.4
Oggi h: 03:50 sereno Sereno 19 18 93 1016 10 N/NO 7.4
Oggi h: 03:20 molto_nuvoloso Molto Nuvoloso 20 18 88 1016 10 N 3.7
Oggi h: 02:50 molto_nuvoloso Molto Nuvoloso 20 18 88 1017 10 N 5.5
Oggi h: 02:20 coperto_pioggia Pioggia Debole 20 18 88 1017 10 N 1.8
Oggi h: 01:50 molto_nuvoloso Molto Nuvoloso 20 18 88 1017 10 O 7.4
Oggi h: 01:20 sereno Sereno 20 18 88 1017 10 N 3.7
Oggi h: 00:50 sereno Sereno 20 18 88 1017 10 N 1.8
Oggi h: 00:20 molto_nuvoloso Molto Nuvoloso 20 19 93 1017 8 N 1.8
Ieri h: 23:50 molto_nuvoloso Molto Nuvoloso 21 18 82 1016 8 N 1.8
Ieri h: 23:20 molto_nuvoloso Molto Nuvoloso 20 19 93 1016 8 N 3.7
Ieri h: 22:50 molto_nuvoloso Molto Nuvoloso 21 19 88 1016 8 N 3.7
Ieri h: 22:20 molto_nuvoloso Molto Nuvoloso 20 19 93 1016 10 N 5.5
Ieri h: 21:50 molto_nuvoloso Molto Nuvoloso 21 18 82 1016 10 N 3.7
Ieri h: 21:20 molto_nuvoloso Molto Nuvoloso 21 19 88 1016 10 N 1.8
Ieri h: 20:50 molto_nuvoloso Molto Nuvoloso 21 18 82 1016 10 N 5.5